STARLINK-36670

Last updated on Sun Mar 15 2026 00:02:07 GMT+0000 (Coordinated Universal Time)

1 67828U 26033H 26073.58335648 -.01942045 00000+0 -20012-1 0 9997 2 67828 42.9990 241.7012 0001459 278.4156 173.7544 15.67066238 5454

Satellite not in orbit